Hourly Data Report for October 29, 2013

All times are specified in Local Standard Time (LST). Add 1 hour to adjust for Daylight Saving Time where and when it is observed.

GRISE FIORD CLIMATE
NUNAVUT

76°25'22.040" N
82°54'08.020" W
44.50 m
2402351
71971
NGC

Download Data

Hourly Data (October 2013)
Hourly Data Report for October 29, 2013
Temp Definition
°C
Dew Point Temp Definition
°C
Rel Hum Definition
%
Wind Dir Definition
10's deg

Wind Spd Definition
km/h
Visibility Definition
km
Stn Press Definition
kPa
Hmdx Definition


Wind Chill Definition


Weather Definition


TIME
00:00 -17.0 -19.2 83   0   100.75     LegendNANA
01:00 -18.1 -20.3 83 5 2   100.74   -20 LegendNANA
02:00 -18.0 -20.1 84   0   100.75     LegendNANA
03:00 -17.7 -19.8 84 5 2   100.74   -19 LegendNANA
04:00 -16.7 -18.2 88   0   100.73     LegendNANA
05:00 -16.7 -18.4 87 34 2   100.72   -18 LegendNANA
06:00 -17.0 -18.5 88   0   100.69     LegendNANA
07:00 -17.0 -18.4 89 8 4   100.70   -20 LegendNANA
08:00 -18.4 -19.8 89 5 2   100.70   -20 LegendNANA
09:00 -18.3 -19.6 89 2 2   100.66   -20 LegendNANA
10:00 -17.0 -18.4 89 4 6   100.65   -22 LegendNANA
11:00 -16.7 -18.0 90 4 4   100.64   -20 LegendNANA
12:00 -16.6 -18.2 87 4 6   100.63   -21 LegendNANA
13:00 -17.1 -18.7 87 4 4   100.62   -20 LegendNANA
14:00 -17.9 -19.5 87 5 2   100.65   -19 LegendNANA
15:00 -17.5 -18.6 91 14 2   100.62   -19 LegendNANA
16:00 -17.7 -19.4 87 4 6   100.64   -22 LegendNANA
17:00 -16.9 -18.3 89 2 6   100.65   -21 LegendNANA
18:00 -17.4 -18.9 88 5 13   100.63   -25 LegendNANA
19:00 -17.4 -19.0 87 4 7   100.65   -23 LegendNANA
20:00 -17.7 -19.0 90 5 15   100.65   -26 LegendNANA
21:00 -17.8 -19.7 85 3 6   100.64   -22 LegendNANA
22:00 -18.4 -20.1 86 5 13   100.62   -26 LegendNANA
23:00 -18.0 -19.8 86 3 6   100.62   -23 LegendNANA

Notes on Data Quality.

Legend

  • E = Estimated
  • M = Missing
  • NA = Not Available
  • ‡ = Partner data that is not subject to review by the National Climate Archives
Date modified: